Regional Weather Roundup
Issued by NWS New Orleans/Baton Rouge, LA

Home | Current Version | Previous Version | Graphics & Text | Print | Product List | Glossary On
Versions: 1 2 3 4 5 6 7 8 9 10 11 12 13 14 15 16 17 18 19 20 21 22 23 24 25 26 27 28 29 30 31 32 33 34 35 36 37 38 39 40 41 42 43 44 45 46 47 48 49 50
291
ASUS44 KLIX 180811
RWRLIX
NEW ORLEANS REGIONAL WEATHER ROUNDUP
NATIONAL WEATHER SERVICE NEW ORLEANS LA
300 AM CDT SAT APR 18 2015

NOTE: "FAIR" INDICATES FEW OR NO CLOUDS BELOW 12,000 FEET WITH NO
      SIGNIFICANT WEATHER AND/OR OBSTRUCTIONS TO VISIBILITY.
      SKY/WX - SKY CONDITION AND SIGNIFICANT WEATHER.
      TMP - AIR TEMPERATURE.     DP    - DEWPOINT TEMPERATURE.
      RH  - RELATIVE HUMIDITY.   PRES  - PRESSURE.
      HI  - HEAT INDEX.          WCI   - WIND CHILL INDEX.

*  THESE STATIONS ARE NOT NWS OR FAA STATIONS AND ARE NOT UNDER
   NWS QUALITY CONTROL.

LAZ038-040-048-061>063-065>067-069-180900-
SOUTHEAST LOUISIANA

CITY           SKY/WX    TMP DP  RH WIND       PRES   REMARKS
N.O. AUDUBON     N/A     73  73 100 MISG        N/A
N.O. INTL ARPT TSTM      74  70  87 NW3       29.91S
N.O. LAKEFRONT LGT RAIN  78  72  81 W13       29.92S
SLIDELL        CLOUDY    71  71 100 N3        29.91F
BATON ROUGE    LGT RAIN  70  68  93 VRB6      29.91F FOG
BOOTHVILLE     CLOUDY    72  70  93 SE3       29.91F
BELLE CHASSE   TSTM      72  70  93 CALM      29.89F
BOGALUSA*        N/A     69  65  89 CALM      29.95R
GALLIANO*      CLOUDY    73  71  95 CALM      29.89F
NEW ROADS*     CLOUDY    69  68  95 N3G23     29.92F
GONZALES*      LGT RAIN  71  71 100 N5G17     29.89F
HAMMOND*       LGT RAIN  70  66  88 N3        29.94F
HOUMA*         TSTM      72  71  97 NW6       29.89F
PORT FOURCHON* CLOUDY    75  72  88 SE9       29.91F

$$

MSZ070-080>082-180900-
SOUTHERN MISSISSIPPI

CITY           SKY/WX    TMP DP  RH WIND       PRES   REMARKS
MCCOMB         CLOUDY    68  66  93 CALM      29.96R
GULFPORT       CLOUDY    69  68  96 CALM      29.91S
BILOXI         CLOUDY    70  70 100 N1        29.91R FOG
PASCAGOULA     CLOUDY    69  68  96 CALM      29.91F

$$

COASTAL OBSERVATIONS
LAKE AND NEARSHORE STATIONS

STATION/POSITION TIME  TEMP    WIND        PRES    WAVE
                       AIR SEA DIR/SP/G            HT/PER
                 (UTC) (F)     (DEG/KT/KT) (MB)    (FT/S)
PASCAGOULA       0700   71      50/  6/  8 1012.4
WAVELAND YACHT   0700   71 74  340/  2/  3 1013.1
GRAND ISLE       0700   74 76  100/  3/  4 1012.6
SOUTHWEST PASS   0700   71 63  140/ 10/ 11 1013.4
NEW CANAL        0700   75      CALM  /  1 1013.3
SHELL BEACH      0700   74 76   CALM  /  3 1012.4

OFFSHORE STATIONS

STATION/POSITION TIME  TEMP    WIND        PRES    WAVE
                       AIR SEA DIR/SP/G            HT/PER
                 (UTC) (F)     (DEG/KT/KT) (MB)    (FT/S)
64 S DAUPHIN ISL 0750   74 74  150/  6/  6 1012.9    3/ 5

$$




USA.gov is the U.S. government's official web portal to all federal, state and local government web resources and services.